contact:dominique.lefevre@mio.osupytheas.fr, maurice.libes@osupytheas.fr, didier.mallarino@osupytheas.fr
Project:EMSO http://www.emso-fr.org/EMSO-France
Depth: 2436.0 m
Title:EMSO Ligure Ouest : Data MII capteur MICROCAT
DateTime_Computer,Latitude,Longitude,Temperature,Conductivity,Pressure,DateTime_Instrument
DateTime_Computer,Latitude,Longitude,degC,S m-1,dbar,DateTime_Instrument
2019-11-19T00:01:17Z,42.805,6.029,13.2959,4.59988,2470.053,2019-11-19T02:01:45Z
2019-11-19T00:04:20Z,42.805,6.029,13.2963,4.60003,2470.04,2019-11-19T02:04:48Z
2019-11-19T00:07:24Z,42.805,6.029,13.2975,4.59996,2470.04,2019-11-19T02:07:52Z
2019-11-19T00:10:27Z,42.805,6.029,13.2959,4.60043,2470.053,2019-11-19T02:10:55Z
2019-11-19T00:13:30Z,42.805,6.029,13.2958,4.60046,2470.04,2019-11-19T02:13:58Z
2019-11-19T00:16:33Z,42.805,6.029,13.2968,4.59992,2470.053,2019-11-19T02:17:01Z
2019-11-19T00:19:37Z,42.805,6.029,13.2966,4.60036,2470.007,2019-11-19T02:20:05Z
2019-11-19T00:22:40Z,42.805,6.029,13.2964,4.60034,2470.017,2019-11-19T02:23:08Z
2019-11-19T00:25:43Z,42.805,6.029,13.2967,4.59986,2470.017,2019-11-19T02:26:11Z
2019-11-19T00:28:46Z,42.805,6.029,13.2963,4.59990,2470.017,2019-11-19T02:29:14Z
2019-11-19T00:31:50Z,42.805,6.029,13.2964,4.60032,2470.017,2019-11-19T02:32:18Z
2019-11-19T00:34:53Z,42.805,6.029,13.2959,4.60014,2469.993,2019-11-19T02:35:21Z
2019-11-19T00:37:56Z,42.805,6.029,13.2956,4.59996,2470.04,2019-11-19T02:38:24Z
2019-11-19T00:41:00Z,42.805,6.029,13.2959,4.59991,2470.04,2019-11-19T02:41:28Z
2019-11-19T00:44:03Z,42.805,6.029,13.2961,4.59996,2469.993,2019-11-19T02:44:31Z
2019-11-19T00:47:06Z,42.805,6.029,13.2961,4.59986,2470.03,2019-11-19T02:47:34Z
2019-11-19T00:50:09Z,42.805,6.029,13.2961,4.59976,2470.017,2019-11-19T02:50:37Z
2019-11-19T00:53:13Z,42.805,6.029,13.2958,4.59974,2469.993,2019-11-19T02:53:41Z
2019-11-19T00:56:16Z,42.805,6.029,13.2960,4.59981,2470.017,2019-11-19T02:56:44Z
2019-11-19T00:59:19Z,42.805,6.029,13.2958,4.59983,2470.03,2019-11-19T02:59:47Z
2019-11-19T01:02:22Z,42.805,6.029,13.2957,4.59981,2470.017,2019-11-19T03:02:50Z
2019-11-19T01:05:25Z,42.805,6.029,13.2957,4.59978,2470.053,2019-11-19T03:05:54Z
2019-11-19T01:08:29Z,42.805,6.029,13.2957,4.59983,2470.077,2019-11-19T03:08:57Z
2019-11-19T01:11:32Z,42.805,6.029,13.2953,4.59983,2470.017,2019-11-19T03:12:00Z
2019-11-19T01:14:35Z,42.805,6.029,13.2959,4.59976,2470.017,2019-11-19T03:15:03Z
2019-11-19T01:17:39Z,42.805,6.029,13.2961,4.59994,2470.03,2019-11-19T03:18:07Z
2019-11-19T01:20:42Z,42.805,6.029,13.2959,4.59986,2470.007,2019-11-19T03:21:10Z
2019-11-19T01:23:45Z,42.805,6.029,13.2960,4.59991,2470.03,2019-11-19T03:24:13Z
2019-11-19T01:26:48Z,42.805,6.029,13.2957,4.59981,2470.017,2019-11-19T03:27:16Z
2019-11-19T01:29:52Z,42.805,6.029,13.2963,4.59996,2469.993,2019-11-19T03:30:20Z
2019-11-19T01:32:55Z,42.805,6.029,13.2961,4.59996,2470.017,2019-11-19T03:33:23Z
2019-11-19T01:35:58Z,42.805,6.029,13.2958,4.59988,2469.993,2019-11-19T03:36:26Z
2019-11-19T01:39:01Z,42.805,6.029,13.2967,4.59996,2469.993,2019-11-19T03:39:29Z
2019-11-19T01:42:05Z,42.805,6.029,13.2962,4.59996,2470.017,2019-11-19T03:42:33Z
2019-11-19T01:45:08Z,42.805,6.029,13.2956,4.59994,2470.03,2019-11-19T03:45:36Z
2019-11-19T01:48:11Z,42.805,6.029,13.2958,4.59994,2469.993,2019-11-19T03:48:39Z
2019-11-19T01:51:14Z,42.805,6.029,13.3007,4.60000,2470.007,2019-11-19T03:51:42Z
2019-11-19T01:54:18Z,42.805,6.029,13.2970,4.60014,2470.007,2019-11-19T03:54:46Z
2019-11-19T01:57:21Z,42.805,6.029,13.2987,4.60015,2469.993,2019-11-19T03:57:49Z
2019-11-19T02:00:24Z,42.805,6.029,13.2967,4.60006,2470.03,2019-11-19T04:00:52Z
2019-11-19T02:03:27Z,42.805,6.029,13.2965,4.59991,2470.017,2019-11-19T04:03:56Z
2019-11-19T02:06:31Z,42.805,6.029,13.2964,4.59994,2470.017,2019-11-19T04:06:59Z
2019-11-19T02:09:34Z,42.805,6.029,13.2968,4.60003,2469.993,2019-11-19T04:10:02Z
2019-11-19T02:12:37Z,42.805,6.029,13.2965,4.60017,2469.993,2019-11-19T04:13:05Z
2019-11-19T02:15:40Z,42.805,6.029,13.2967,4.60009,2469.97,2019-11-19T04:16:09Z
2019-11-19T02:18:44Z,42.805,6.029,13.2966,4.60007,2469.97,2019-11-19T04:19:12Z
2019-11-19T02:21:47Z,42.805,6.029,13.2960,4.59986,2469.993,2019-11-19T04:22:15Z
2019-11-19T02:24:50Z,42.805,6.029,13.2957,4.59986,2469.97,2019-11-19T04:25:18Z
2019-11-19T02:27:54Z,42.805,6.029,13.2958,4.59976,2470.017,2019-11-19T04:28:22Z
2019-11-19T02:30:57Z,42.805,6.029,13.2960,4.59977,2470.03,2019-11-19T04:31:25Z
2019-11-19T02:34:00Z,42.805,6.029,13.2956,4.59973,2469.96,2019-11-19T04:34:28Z
2019-11-19T02:37:03Z,42.805,6.029,13.2956,4.59976,2470.007,2019-11-19T04:37:31Z
2019-11-19T02:40:06Z,42.805,6.029,13.2956,4.59980,2469.993,2019-11-19T04:40:35Z
2019-11-19T02:43:10Z,42.805,6.029,13.2957,4.59976,2469.984,2019-11-19T04:43:38Z
2019-11-19T02:46:13Z,42.805,6.029,13.2961,4.59981,2469.984,2019-11-19T04:46:41Z
2019-11-19T02:49:16Z,42.805,6.029,13.2959,4.59984,2469.984,2019-11-19T04:49:44Z
2019-11-19T02:52:20Z,42.805,6.029,13.2961,4.59987,2469.97,2019-11-19T04:52:48Z
2019-11-19T02:55:23Z,42.805,6.029,13.2961,4.59985,2469.97,2019-11-19T04:55:51Z
2019-11-19T02:58:26Z,42.805,6.029,13.2958,4.59981,2469.97,2019-11-19T04:58:54Z
2019-11-19T03:01:29Z,42.805,6.029,13.2963,4.59980,2469.97,2019-11-19T05:01:57Z
2019-11-19T03:04:33Z,42.805,6.029,13.2960,4.59989,2469.947,2019-11-19T05:05:01Z
2019-11-19T03:07:36Z,42.805,6.029,13.2960,4.59987,2469.97,2019-11-19T05:08:04Z
2019-11-19T03:10:39Z,42.805,6.029,13.2961,4.59988,2469.97,2019-11-19T05:11:07Z
2019-11-19T03:13:42Z,42.805,6.029,13.2961,4.59980,2469.96,2019-11-19T05:14:10Z
2019-11-19T03:16:46Z,42.805,6.029,13.2958,4.59979,2469.97,2019-11-19T05:17:14Z
2019-11-19T03:19:49Z,42.805,6.029,13.2960,4.59984,2469.947,2019-11-19T05:20:17Z
2019-11-19T03:22:52Z,42.805,6.029,13.2961,4.59991,2469.97,2019-11-19T05:23:20Z
2019-11-19T03:25:55Z,42.805,6.029,13.2961,4.59979,2469.993,2019-11-19T05:26:23Z
2019-11-19T03:28:59Z,42.805,6.029,13.2964,4.59982,2469.947,2019-11-19T05:29:27Z
2019-11-19T03:32:02Z,42.805,6.029,13.2976,4.59976,2469.96,2019-11-19T05:32:30Z
2019-11-19T03:35:05Z,42.805,6.029,13.2957,4.59985,2469.947,2019-11-19T05:35:33Z
2019-11-19T03:38:08Z,42.805,6.029,13.2972,4.59985,2469.947,2019-11-19T05:38:36Z
2019-11-19T03:41:12Z,42.805,6.029,13.2961,4.59989,2469.984,2019-11-19T05:41:40Z
2019-11-19T03:44:15Z,42.805,6.029,13.2961,4.59979,2469.993,2019-11-19T05:44:43Z
2019-11-19T03:47:18Z,42.805,6.029,13.2960,4.59983,2469.984,2019-11-19T05:47:46Z
2019-11-19T03:50:21Z,42.805,6.029,13.2957,4.59991,2469.984,2019-11-19T05:50:49Z
2019-11-19T03:53:25Z,42.805,6.029,13.2963,4.59982,2469.937,2019-11-19T05:53:53Z
2019-11-19T03:56:28Z,42.805,6.029,13.2960,4.59983,2469.947,2019-11-19T05:56:56Z
2019-11-19T03:59:31Z,42.805,6.029,13.2958,4.59984,2469.947,2019-11-19T05:59:59Z
2019-11-19T04:02:34Z,42.805,6.029,13.2958,4.59980,2469.96,2019-11-19T06:03:03Z
2019-11-19T04:05:38Z,42.805,6.029,13.2956,4.59968,2469.947,2019-11-19T06:06:06Z
2019-11-19T04:08:41Z,42.805,6.029,13.2965,4.59976,2469.96,2019-11-19T06:09:09Z
2019-11-19T04:11:44Z,42.805,6.029,13.2958,4.59986,2469.984,2019-11-19T06:12:12Z
2019-11-19T04:14:47Z,42.805,6.029,13.2959,4.59985,2469.97,2019-11-19T06:15:16Z
2019-11-19T04:17:51Z,42.805,6.029,13.2957,4.59978,2469.96,2019-11-19T06:18:19Z
2019-11-19T04:20:54Z,42.805,6.029,13.2961,4.59972,2469.96,2019-11-19T06:21:22Z
2019-11-19T04:23:57Z,42.805,6.029,13.2957,4.59971,2469.96,2019-11-19T06:24:25Z
2019-11-19T04:27:00Z,42.805,6.029,13.2960,4.59966,2469.947,2019-11-19T06:27:29Z
2019-11-19T04:30:04Z,42.805,6.029,13.2956,4.59968,2469.97,2019-11-19T06:30:32Z
2019-11-19T04:33:07Z,42.805,6.029,13.2957,4.59967,2469.947,2019-11-19T06:33:35Z
2019-11-19T04:36:10Z,42.805,6.029,13.2959,4.59969,2469.937,2019-11-19T06:36:38Z
2019-11-19T04:39:13Z,42.805,6.029,13.2958,4.59966,2469.96,2019-11-19T06:39:42Z
2019-11-19T04:42:17Z,42.805,6.029,13.2961,4.59967,2469.984,2019-11-19T06:42:45Z
2019-11-19T04:45:20Z,42.805,6.029,13.2958,4.59969,2469.923,2019-11-19T06:45:48Z
2019-11-19T04:48:23Z,42.805,6.029,13.2964,4.59966,2469.947,2019-11-19T06:48:51Z
2019-11-19T04:51:26Z,42.805,6.029,13.2957,4.59968,2469.947,2019-11-19T06:51:54Z
2019-11-19T04:54:30Z,42.805,6.029,13.2961,4.59964,2469.923,2019-11-19T06:54:58Z
2019-11-19T04:57:33Z,42.805,6.029,13.2959,4.59966,2469.947,2019-11-19T06:58:01Z
2019-11-19T05:00:36Z,42.805,6.029,13.2964,4.59966,2469.97,2019-11-19T07:01:04Z
2019-11-19T05:03:39Z,42.805,6.029,13.2959,4.59968,2469.993,2019-11-19T07:04:07Z
2019-11-19T05:06:42Z,42.805,6.029,13.2959,4.59964,2469.947,2019-11-19T07:07:10Z
2019-11-19T05:09:46Z,42.805,6.029,13.2959,4.59966,2469.937,2019-11-19T07:10:14Z
2019-11-19T05:12:49Z,42.805,6.029,13.2958,4.59964,2469.947,2019-11-19T07:13:17Z
2019-11-19T05:15:52Z,42.805,6.029,13.2954,4.59967,2469.947,2019-11-19T07:16:20Z
2019-11-19T05:18:55Z,42.805,6.029,13.2956,4.59964,2469.947,2019-11-19T07:19:23Z
2019-11-19T05:21:59Z,42.805,6.029,13.2958,4.59964,2469.947,2019-11-19T07:22:27Z
2019-11-19T05:25:02Z,42.805,6.029,13.2961,4.59966,2469.96,2019-11-19T07:25:30Z
2019-11-19T05:28:05Z,42.805,6.029,13.2959,4.59964,2469.97,2019-11-19T07:28:33Z
2019-11-19T05:31:08Z,42.805,6.029,13.2958,4.59961,2469.923,2019-11-19T07:31:36Z
2019-11-19T05:34:11Z,42.805,6.029,13.2958,4.59961,2469.923,2019-11-19T07:34:40Z
2019-11-19T05:37:15Z,42.805,6.029,13.2959,4.59964,2469.96,2019-11-19T07:37:43Z
2019-11-19T05:40:18Z,42.805,6.029,13.2958,4.59964,2469.937,2019-11-19T07:40:46Z
2019-11-19T05:43:21Z,42.805,6.029,13.2961,4.59961,2469.96,2019-11-19T07:43:49Z
2019-11-19T05:46:24Z,42.805,6.029,13.2964,4.59963,2469.876,2019-11-19T07:46:52Z
2019-11-19T05:49:28Z,42.805,6.029,13.2956,4.59962,2469.947,2019-11-19T07:49:56Z
2019-11-19T05:52:31Z,42.805,6.029,13.2958,4.59961,2469.97,2019-11-19T07:52:59Z
2019-11-19T05:55:34Z,42.805,6.029,13.2956,4.59964,2469.947,2019-11-19T07:56:02Z
2019-11-19T05:58:37Z,42.805,6.029,13.2963,4.59964,2469.947,2019-11-19T07:59:05Z
2019-11-19T06:01:40Z,42.805,6.029,13.2958,4.59960,2469.937,2019-11-19T08:02:08Z
2019-11-19T06:04:44Z,42.805,6.029,13.2958,4.59964,2469.97,2019-11-19T08:05:12Z
2019-11-19T06:07:47Z,42.805,6.029,13.2961,4.59962,2469.923,2019-11-19T08:08:15Z
2019-11-19T06:10:50Z,42.805,6.029,13.2957,4.59964,2469.97,2019-11-19T08:11:18Z
2019-11-19T06:13:53Z,42.805,6.029,13.2957,4.59962,2469.96,2019-11-19T08:14:21Z
2019-11-19T06:16:57Z,42.805,6.029,13.2957,4.59966,2469.947,2019-11-19T08:17:25Z
2019-11-19T06:20:00Z,42.805,6.029,13.2960,4.59968,2469.923,2019-11-19T08:20:28Z
2019-11-19T06:23:03Z,42.805,6.029,13.2958,4.59972,2469.96,2019-11-19T08:23:31Z
2019-11-19T06:26:06Z,42.805,6.029,13.2961,4.59964,2469.937,2019-11-19T08:26:34Z
2019-11-19T06:29:09Z,42.805,6.029,13.2958,4.59963,2469.923,2019-11-19T08:29:37Z
2019-11-19T06:32:13Z,42.805,6.029,13.2959,4.59962,2469.923,2019-11-19T08:32:41Z
2019-11-19T06:35:16Z,42.805,6.029,13.2961,4.59966,2469.984,2019-11-19T08:35:44Z
2019-11-19T06:38:19Z,42.805,6.029,13.2961,4.59966,2469.947,2019-11-19T08:38:47Z
2019-11-19T06:41:22Z,42.805,6.029,13.2959,4.59963,2469.947,2019-11-19T08:41:50Z
2019-11-19T06:44:26Z,42.805,6.029,13.2965,4.59963,2469.984,2019-11-19T08:44:54Z
2019-11-19T06:47:29Z,42.805,6.029,13.2957,4.59967,2469.97,2019-11-19T08:47:57Z
2019-11-19T06:50:32Z,42.805,6.029,13.2962,4.59964,2469.97,2019-11-19T08:51:00Z
2019-11-19T06:53:35Z,42.805,6.029,13.2956,4.59962,2469.984,2019-11-19T08:54:03Z
2019-11-19T06:56:38Z,42.805,6.029,13.2961,4.59961,2470.007,2019-11-19T08:57:07Z
2019-11-19T06:59:42Z,42.805,6.029,13.2958,4.59964,2469.97,2019-11-19T09:00:10Z
2019-11-19T07:02:45Z,42.805,6.029,13.2960,4.59964,2469.97,2019-11-19T09:03:13Z
2019-11-19T07:05:48Z,42.805,6.029,13.2959,4.59964,2469.947,2019-11-19T09:06:16Z
2019-11-19T07:08:51Z,42.805,6.029,13.2959,4.59967,2469.947,2019-11-19T09:09:20Z
2019-11-19T07:11:55Z,42.805,6.029,13.2961,4.59963,2469.97,2019-11-19T09:12:23Z
2019-11-19T07:14:58Z,42.805,6.029,13.2960,4.59963,2469.97,2019-11-19T09:15:26Z
2019-11-19T07:18:01Z,42.805,6.029,13.2958,4.59967,2469.984,2019-11-19T09:18:29Z
2019-11-19T07:21:04Z,42.805,6.029,13.2957,4.59964,2469.984,2019-11-19T09:21:32Z
2019-11-19T07:24:08Z,42.805,6.029,13.2958,4.59965,2469.97,2019-11-19T09:24:36Z
2019-11-19T07:27:11Z,42.805,6.029,13.2958,4.59966,2469.96,2019-11-19T09:27:39Z
2019-11-19T07:30:14Z,42.805,6.029,13.2959,4.59962,2469.96,2019-11-19T09:30:42Z
2019-11-19T07:33:17Z,42.805,6.029,13.2961,4.59964,2469.984,2019-11-19T09:33:45Z
2019-11-19T07:36:20Z,42.805,6.029,13.2962,4.59964,2469.97,2019-11-19T09:36:48Z
2019-11-19T07:39:24Z,42.805,6.029,13.2961,4.59963,2469.984,2019-11-19T09:39:52Z
2019-11-19T07:42:27Z,42.805,6.029,13.2956,4.59961,2469.993,2019-11-19T09:42:55Z
2019-11-19T07:45:30Z,42.805,6.029,13.2958,4.59962,2469.97,2019-11-19T09:45:58Z
2019-11-19T07:48:33Z,42.805,6.029,13.2958,4.59961,2469.947,2019-11-19T09:49:01Z
2019-11-19T07:51:37Z,42.805,6.029,13.2958,4.59962,2469.97,2019-11-19T09:52:05Z
2019-11-19T07:54:40Z,42.805,6.029,13.2960,4.59969,2469.993,2019-11-19T09:55:08Z
2019-11-19T07:57:43Z,42.805,6.029,13.2961,4.59973,2469.97,2019-11-19T09:58:11Z
2019-11-19T08:00:46Z,42.805,6.029,13.2957,4.59973,2469.993,2019-11-19T10:01:14Z
2019-11-19T08:03:50Z,42.805,6.029,13.2960,4.59979,2469.97,2019-11-19T10:04:18Z
2019-11-19T08:06:53Z,42.805,6.029,13.2960,4.59970,2469.956,2019-11-19T10:07:21Z
2019-11-19T08:09:56Z,42.805,6.029,13.2965,4.59969,2469.993,2019-11-19T10:10:24Z
2019-11-19T08:12:59Z,42.805,6.029,13.2960,4.59976,2470.017,2019-11-19T10:13:27Z
2019-11-19T08:16:02Z,42.805,6.029,13.2954,4.59966,2469.993,2019-11-19T10:16:31Z
2019-11-19T08:19:06Z,42.805,6.029,13.2958,4.59966,2469.993,2019-11-19T10:19:34Z
2019-11-19T08:22:09Z,42.805,6.029,13.2956,4.59964,2469.993,2019-11-19T10:22:37Z
2019-11-19T08:25:12Z,42.805,6.029,13.2958,4.59965,2469.993,2019-11-19T10:25:40Z
2019-11-19T08:28:16Z,42.805,6.029,13.2958,4.59962,2469.97,2019-11-19T10:28:44Z
2019-11-19T08:31:19Z,42.805,6.029,13.2958,4.59966,2470.03,2019-11-19T10:31:47Z
2019-11-19T08:34:22Z,42.805,6.029,13.2958,4.59964,2470.007,2019-11-19T10:34:50Z
2019-11-19T08:37:25Z,42.805,6.029,13.2960,4.59971,2470.053,2019-11-19T10:37:53Z
2019-11-19T08:40:28Z,42.805,6.029,13.2958,4.59968,2470.017,2019-11-19T10:40:56Z
2019-11-19T08:43:32Z,42.805,6.029,13.2958,4.59968,2470.017,2019-11-19T10:44:00Z
2019-11-19T08:46:35Z,42.805,6.029,13.2957,4.59966,2470.04,2019-11-19T10:47:03Z
2019-11-19T08:49:38Z,42.805,6.029,13.2959,4.59963,2470.04,2019-11-19T10:50:06Z
2019-11-19T08:52:41Z,42.805,6.029,13.2956,4.59960,2470.053,2019-11-19T10:53:09Z
2019-11-19T08:55:44Z,42.805,6.029,13.2955,4.59967,2470.017,2019-11-19T10:56:12Z
2019-11-19T08:58:48Z,42.805,6.029,13.2959,4.59964,2469.993,2019-11-19T10:59:16Z
2019-11-19T09:01:51Z,42.805,6.029,13.2961,4.59961,2470.03,2019-11-19T11:02:19Z
2019-11-19T09:04:54Z,42.805,6.029,13.2961,4.59962,2470.053,2019-11-19T11:05:22Z
2019-11-19T09:07:57Z,42.805,6.029,13.2958,4.59961,2470.053,2019-11-19T11:08:25Z
2019-11-19T09:11:01Z,42.805,6.029,13.2957,4.59963,2470.063,2019-11-19T11:11:29Z
2019-11-19T09:14:04Z,42.805,6.029,13.2957,4.59968,2470.04,2019-11-19T11:14:32Z
2019-11-19T09:17:07Z,42.805,6.029,13.2958,4.59964,2470.017,2019-11-19T11:17:35Z
2019-11-19T09:20:10Z,42.805,6.029,13.2961,4.59972,2470.053,2019-11-19T11:20:38Z
2019-11-19T09:23:14Z,42.805,6.029,13.2958,4.59983,2470.087,2019-11-19T11:23:42Z
2019-11-19T09:26:17Z,42.805,6.029,13.2953,4.59963,2470.077,2019-11-19T11:26:45Z
2019-11-19T09:29:20Z,42.805,6.029,13.2958,4.59962,2470.063,2019-11-19T11:29:48Z
2019-11-19T09:32:23Z,42.805,6.029,13.2961,4.59964,2470.063,2019-11-19T11:32:51Z
2019-11-19T09:35:26Z,42.805,6.029,13.2960,4.59967,2470.063,2019-11-19T11:35:54Z
2019-11-19T09:38:30Z,42.805,6.029,13.2964,4.59969,2470.077,2019-11-19T11:38:58Z
2019-11-19T09:41:33Z,42.805,6.029,13.2960,4.59968,2470.053,2019-11-19T11:42:01Z
2019-11-19T09:44:36Z,42.805,6.029,13.2961,4.59978,2470.077,2019-11-19T11:45:04Z
2019-11-19T09:47:39Z,42.805,6.029,13.2959,4.59969,2470.077,2019-11-19T11:48:07Z
2019-11-19T09:50:42Z,42.805,6.029,13.2959,4.59977,2470.087,2019-11-19T11:51:11Z
2019-11-19T09:53:46Z,42.805,6.029,13.2961,4.59970,2470.063,2019-11-19T11:54:14Z
2019-11-19T09:56:49Z,42.805,6.029,13.2957,4.60012,2470.087,2019-11-19T11:57:17Z
2019-11-19T09:59:52Z,42.805,6.029,13.2960,4.59969,2470.087,2019-11-19T12:00:20Z
2019-11-19T10:02:55Z,42.805,6.029,13.2960,4.59990,2470.087,2019-11-19T12:03:23Z
2019-11-19T10:05:59Z,42.805,6.029,13.2957,4.59987,2470.053,2019-11-19T12:06:27Z
2019-11-19T10:09:02Z,42.805,6.029,13.2961,4.59994,2470.077,2019-11-19T12:09:30Z
2019-11-19T10:12:05Z,42.805,6.029,13.2961,4.59991,2470.063,2019-11-19T12:12:33Z
2019-11-19T10:15:08Z,42.805,6.029,13.2962,4.59991,2470.087,2019-11-19T12:15:36Z
2019-11-19T10:18:11Z,42.805,6.029,13.2961,4.60027,2470.087,2019-11-19T12:18:40Z
2019-11-19T10:21:15Z,42.805,6.029,13.2962,4.60017,2470.087,2019-11-19T12:21:43Z
2019-11-19T10:24:18Z,42.805,6.029,13.2958,4.60013,2470.087,2019-11-19T12:24:46Z
2019-11-19T10:27:21Z,42.805,6.029,13.2957,4.60032,2470.1,2019-11-19T12:27:49Z
2019-11-19T10:30:24Z,42.805,6.029,13.2963,4.60066,2470.087,2019-11-19T12:30:52Z
2019-11-19T10:33:28Z,42.805,6.029,13.2962,4.60044,2470.087,2019-11-19T12:33:56Z
2019-11-19T10:36:31Z,42.805,6.029,13.2967,4.60021,2470.1,2019-11-19T12:36:59Z
2019-11-19T10:39:34Z,42.805,6.029,13.2971,4.60031,2470.087,2019-11-19T12:40:02Z
2019-11-19T10:42:37Z,42.805,6.029,13.2961,4.60064,2470.087,2019-11-19T12:43:05Z
2019-11-19T10:45:40Z,42.805,6.029,13.2964,4.60061,2470.087,2019-11-19T12:46:08Z
2019-11-19T10:48:44Z,42.805,6.029,13.2966,4.60054,2470.11,2019-11-19T12:49:12Z
2019-11-19T10:51:47Z,42.805,6.029,13.2980,4.60023,2470.133,2019-11-19T12:52:15Z
2019-11-19T10:54:50Z,42.805,6.029,13.2996,4.60019,2470.087,2019-11-19T12:55:18Z
2019-11-19T10:57:53Z,42.805,6.029,13.2998,4.60016,2470.063,2019-11-19T12:58:22Z
2019-11-19T11:00:57Z,42.805,6.029,13.2958,4.60072,2470.133,2019-11-19T13:01:25Z
2019-11-19T11:04:00Z,42.805,6.029,13.2959,4.60068,2470.087,2019-11-19T13:04:28Z
2019-11-19T11:07:03Z,42.805,6.029,13.2972,4.60081,2470.1,2019-11-19T13:07:31Z
2019-11-19T11:10:06Z,42.805,6.029,13.2966,4.60077,2470.11,2019-11-19T13:10:35Z
2019-11-19T11:13:10Z,42.805,6.029,13.2966,4.60100,2470.11,2019-11-19T13:13:38Z
2019-11-19T11:16:13Z,42.805,6.029,13.2963,4.60089,2470.077,2019-11-19T13:16:41Z
2019-11-19T11:19:16Z,42.805,6.029,13.2969,4.60039,2470.11,2019-11-19T13:19:44Z
2019-11-19T11:22:19Z,42.805,6.029,13.2985,4.60043,2470.087,2019-11-19T13:22:47Z
2019-11-19T11:25:22Z,42.805,6.029,13.2998,4.60053,2470.147,2019-11-19T13:25:51Z
2019-11-19T11:28:26Z,42.805,6.029,13.3009,4.60040,2470.11,2019-11-19T13:28:54Z
2019-11-19T11:31:29Z,42.805,6.029,13.3031,4.60063,2470.1,2019-11-19T13:31:57Z
2019-11-19T11:34:32Z,42.805,6.029,13.3039,4.60032,2470.124,2019-11-19T13:35:00Z
2019-11-19T11:37:36Z,42.805,6.029,13.3033,4.60011,2470.087,2019-11-19T13:38:04Z
2019-11-19T11:40:39Z,42.805,6.029,13.3032,4.60010,2470.124,2019-11-19T13:41:07Z
2019-11-19T11:43:42Z,42.805,6.029,13.3043,4.60013,2470.124,2019-11-19T13:44:10Z
2019-11-19T11:46:45Z,42.805,6.029,13.3049,4.60019,2470.119,2019-11-19T13:47:13Z
2019-11-19T11:49:49Z,42.805,6.029,13.3036,4.60008,2470.11,2019-11-19T13:50:17Z
2019-11-19T11:52:52Z,42.805,6.029,13.3044,4.59994,2470.11,2019-11-19T13:53:20Z
2019-11-19T11:55:55Z,42.805,6.029,13.3043,4.59993,2470.124,2019-11-19T13:56:23Z
2019-11-19T11:58:58Z,42.805,6.029,13.3039,4.59987,2470.1,2019-11-19T13:59:26Z
2019-11-19T12:02:02Z,42.805,6.029,13.3042,4.59993,2470.087,2019-11-19T14:02:30Z
2019-11-19T12:05:05Z,42.805,6.029,13.3044,4.60003,2470.063,2019-11-19T14:05:33Z
2019-11-19T12:08:08Z,42.805,6.029,13.3021,4.60048,2470.11,2019-11-19T14:08:36Z
2019-11-19T12:11:11Z,42.805,6.029,13.3015,4.59993,2470.147,2019-11-19T14:11:39Z
2019-11-19T12:14:15Z,42.805,6.029,13.3046,4.59993,2470.147,2019-11-19T14:14:43Z
2019-11-19T12:17:18Z,42.805,6.029,13.3037,4.60011,2470.133,2019-11-19T14:17:46Z
2019-11-19T12:20:21Z,42.805,6.029,13.3011,4.59995,2470.1,2019-11-19T14:20:49Z
2019-11-19T12:23:24Z,42.805,6.029,13.3051,4.60003,2470.147,2019-11-19T14:23:52Z
2019-11-19T12:26:28Z,42.805,6.029,13.3035,4.59985,2470.087,2019-11-19T14:26:56Z
2019-11-19T12:29:31Z,42.805,6.029,13.3047,4.60009,2470.124,2019-11-19T14:29:59Z
2019-11-19T12:32:34Z,42.805,6.029,13.3016,4.59998,2470.147,2019-11-19T14:33:02Z
2019-11-19T12:35:37Z,42.805,6.029,13.3011,4.60002,2470.11,2019-11-19T14:36:06Z
2019-11-19T12:38:41Z,42.805,6.029,13.3019,4.60006,2470.11,2019-11-19T14:39:09Z
2019-11-19T12:41:44Z,42.805,6.029,13.3004,4.59999,2470.11,2019-11-19T14:42:12Z
2019-11-19T12:44:47Z,42.805,6.029,13.3014,4.59996,2470.11,2019-11-19T14:45:15Z
2019-11-19T12:47:51Z,42.805,6.029,13.2998,4.59984,2470.124,2019-11-19T14:48:19Z
2019-11-19T12:50:54Z,42.805,6.029,13.2998,4.60006,2470.1,2019-11-19T14:51:22Z
2019-11-19T12:53:57Z,42.805,6.029,13.3020,4.59993,2470.087,2019-11-19T14:54:25Z
2019-11-19T12:57:00Z,42.805,6.029,13.3026,4.59996,2470.11,2019-11-19T14:57:28Z
2019-11-19T13:00:04Z,42.805,6.029,13.3032,4.59997,2470.124,2019-11-19T15:00:32Z
2019-11-19T13:03:07Z,42.805,6.029,13.3011,4.59992,2470.124,2019-11-19T15:03:35Z
2019-11-19T13:06:10Z,42.805,6.029,13.3014,4.60000,2470.124,2019-11-19T15:06:38Z
2019-11-19T13:09:13Z,42.805,6.029,13.3019,4.59998,2470.147,2019-11-19T15:09:42Z
2019-11-19T13:12:17Z,42.805,6.029,13.3009,4.60004,2470.124,2019-11-19T15:12:45Z
2019-11-19T13:15:20Z,42.805,6.029,13.3006,4.60003,2470.124,2019-11-19T15:15:48Z
2019-11-19T13:18:23Z,42.805,6.029,13.3000,4.59998,2470.133,2019-11-19T15:18:51Z
2019-11-19T13:21:27Z,42.805,6.029,13.3026,4.59996,2470.124,2019-11-19T15:21:55Z
2019-11-19T13:24:30Z,42.805,6.029,13.3010,4.59994,2470.133,2019-11-19T15:24:58Z
2019-11-19T13:27:33Z,42.805,6.029,13.3019,4.59987,2470.087,2019-11-19T15:28:01Z
2019-11-19T13:30:36Z,42.805,6.029,13.3007,4.59996,2470.1,2019-11-19T15:31:04Z
2019-11-19T13:33:40Z,42.805,6.029,13.3004,4.60003,2470.124,2019-11-19T15:34:08Z
2019-11-19T13:36:43Z,42.805,6.029,13.3014,4.59996,2470.124,2019-11-19T15:37:11Z
2019-11-19T13:39:46Z,42.805,6.029,13.3008,4.59993,2470.11,2019-11-19T15:40:14Z
2019-11-19T13:42:49Z,42.805,6.029,13.2999,4.59999,2470.11,2019-11-19T15:43:17Z
2019-11-19T13:45:53Z,42.805,6.029,13.2996,4.60000,2470.11,2019-11-19T15:46:21Z
2019-11-19T13:48:56Z,42.805,6.029,13.2995,4.59995,2470.11,2019-11-19T15:49:24Z
2019-11-19T13:51:59Z,42.805,6.029,13.3008,4.59999,2470.124,2019-11-19T15:52:27Z
2019-11-19T13:55:02Z,42.805,6.029,13.3000,4.59996,2470.124,2019-11-19T15:55:31Z
2019-11-19T13:58:06Z,42.805,6.029,13.3004,4.59985,2470.087,2019-11-19T15:58:34Z
2019-11-19T14:01:09Z,42.805,6.029,13.3001,4.59988,2470.11,2019-11-19T16:01:37Z
2019-11-19T14:04:12Z,42.805,6.029,13.3004,4.59984,2470.11,2019-11-19T16:04:41Z
2019-11-19T14:07:16Z,42.805,6.029,13.2998,4.59987,2470.147,2019-11-19T16:07:44Z
2019-11-19T14:10:19Z,42.805,6.029,13.2994,4.59988,2470.124,2019-11-19T16:10:47Z
2019-11-19T14:13:22Z,42.805,6.029,13.2993,4.59994,2470.087,2019-11-19T16:13:50Z
2019-11-19T14:16:26Z,42.805,6.029,13.2997,4.59995,2470.087,2019-11-19T16:16:54Z
2019-11-19T14:19:29Z,42.805,6.029,13.3004,4.59994,2470.1,2019-11-19T16:19:57Z
2019-11-19T14:22:32Z,42.805,6.029,13.2999,4.59994,2470.1,2019-11-19T16:23:00Z
2019-11-19T14:25:35Z,42.805,6.029,13.2995,4.59983,2470.11,2019-11-19T16:26:03Z
2019-11-19T14:28:39Z,42.805,6.029,13.3006,4.59993,2470.087,2019-11-19T16:29:07Z
2019-11-19T14:31:42Z,42.805,6.029,13.3003,4.59998,2470.087,2019-11-19T16:32:10Z
2019-11-19T14:34:45Z,42.805,6.029,13.2998,4.59994,2470.063,2019-11-19T16:35:13Z
2019-11-19T14:37:49Z,42.805,6.029,13.2999,4.59991,2470.124,2019-11-19T16:38:17Z
2019-11-19T14:40:52Z,42.805,6.029,13.2999,4.59996,2470.11,2019-11-19T16:41:20Z
2019-11-19T14:43:55Z,42.805,6.029,13.2995,4.59988,2470.1,2019-11-19T16:44:23Z
2019-11-19T14:46:58Z,42.805,6.029,13.2995,4.60001,2470.11,2019-11-19T16:47:27Z
2019-11-19T14:50:02Z,42.805,6.029,13.2994,4.59996,2470.1,2019-11-19T16:50:30Z
2019-11-19T14:53:05Z,42.805,6.029,13.2995,4.59986,2470.077,2019-11-19T16:53:33Z
2019-11-19T14:56:08Z,42.805,6.029,13.2992,4.59992,2470.087,2019-11-19T16:56:36Z
2019-11-19T14:59:11Z,42.805,6.029,13.2985,4.59990,2470.087,2019-11-19T16:59:40Z
2019-11-19T15:02:15Z,42.805,6.029,13.3026,4.60000,2470.087,2019-11-19T17:02:43Z